Weather History for KLHQ - May, 2013

Change the Weather History Date:

Monday, May 27, 2013

  Actual Average Record
Temperature  
Mean Temperature 56 °F -  
Max Temperature 69 °F 74 °F 93 °F (2012)
Min Temperature 43 °F 49 °F 33 °F (1961)
Degree Days  
Heating Degree Days 9    
Growing Degree Days 6 (Base 50)    
Moisture  
Dew Point 46 °F    
Average Humidity 68    
Maximum Humidity 89    
Minimum Humidity 45    
Precipitation  
Precipitation 0.05 in - - ()
Sea Level Pressure  
Sea Level Pressure 30.17 in    
Wind  
Wind Speed 6 mph (SE)    
Max Wind Speed 16 mph    
Max Gust Speed 22 mph    
Visibility 10 miles    
Events Rain    
Averages and records for this station are not official NWS values.
T = Trace of Precipitation, MM = Missing Value Source: NWS Daily Summary

Daily Weather History Graph

Daily Weather History Graph

Search for Another Location

Airport or City:

Trip Planner

Search our weather history database for the weather conditions in past years. The results will help you decide how hot, cold, wet, or windy it might be!

Date:

Astronomy

May. 27, 2013 Rise Set
Actual Time 6:06 AM EDT 8:49 PM EDT
Civil Twilight 5:35 AM EDT 9:20 PM EDT
Nautical Twilight 4:55 AM EDT 10:00 PM EDT
Astronomical Twilight 4:11 AM EDT 10:45 PM EDT
Moon 11:27 PM EDT (5/27) 8:42 AM EDT (5/27)
Length of Visible Light 15h 45m
Length of Day
14h 42m
Waning Gibbous, 91% of the Moon is Illuminated
May 27
Waning Gibbous
May 31
Last Quarter
Jun 8
New
Jun 16
First Quarter
Jun 23
Full

Hourly Weather History & Observations

Time (EDT) Temp. Windchill Dew Point Humidity Pressure Visibility Wind Dir Wind Speed Gust Speed Precip Events Conditions
12:53 AM 43.0 °F 38.8 °F 39.9 °F 89% 30.26 in 9.0 mi North 6.9 mph - N/A   Clear
1:53 AM 45.0 °F 42.6 °F 39.9 °F 82% 30.26 in 10.0 mi SSW 4.6 mph - N/A   Clear
2:53 AM 46.9 °F - 42.1 °F 83% 30.24 in 10.0 mi Calm Calm - N/A   Clear
3:53 AM 48.0 °F - 43.0 °F 83% 30.22 in 10.0 mi Calm Calm - N/A   Clear
4:53 AM 50.0 °F - 44.1 °F 80% 30.23 in 10.0 mi Calm Calm - N/A   Mostly Cloudy
5:53 AM 50.0 °F - 44.1 °F 80% 30.23 in 10.0 mi West 3.5 mph - N/A   Overcast
6:53 AM 51.1 °F - 44.1 °F 77% 30.25 in 10.0 mi ESE 3.5 mph - 0.00 in Rain Light Rain
7:53 AM 52.0 °F - 46.9 °F 83% 30.25 in 10.0 mi Calm Calm - 0.01 in   Overcast
8:53 AM 52.0 °F - 45.0 °F 77% 30.25 in 10.0 mi South 3.5 mph - 0.00 in Rain Light Rain
9:53 AM 53.1 °F - 45.0 °F 74% 30.25 in 10.0 mi SE 5.8 mph - 0.01 in   Overcast
10:53 AM 52.0 °F - 46.0 °F 80% 30.25 in 8.0 mi SSE 4.6 mph - 0.03 in Rain Light Rain
11:53 AM 54.0 °F - 46.0 °F 75% 30.25 in 10.0 mi ESE 4.6 mph - 0.00 in   Overcast
12:53 PM 61.0 °F - 48.0 °F 62% 30.22 in 10.0 mi SE 13.8 mph - N/A   Overcast
1:53 PM 64.9 °F - 48.0 °F 54% 30.18 in 10.0 mi ESE 13.8 mph 21.9 mph N/A   Clear
2:53 PM 64.0 °F - 43.0 °F 46% 30.15 in 10.0 mi SE 16.1 mph 21.9 mph N/A   Clear
3:53 PM 69.1 °F - 46.9 °F 45% 30.13 in 10.0 mi SSE 13.8 mph - N/A   Clear
4:53 PM 68.0 °F - 48.0 °F 49% 30.11 in 10.0 mi SSE 10.4 mph - N/A   Clear
5:53 PM 68.0 °F - 48.9 °F 50% 30.09 in 10.0 mi SE 9.2 mph - N/A   Clear
6:53 PM 66.9 °F - 48.9 °F 52% 30.06 in 10.0 mi SE 10.4 mph - N/A   Clear
7:53 PM 64.9 °F - 50.0 °F 58% 30.05 in 10.0 mi SE 6.9 mph - N/A   Clear
8:53 PM 63.0 °F - 48.9 °F 60% 30.04 in 10.0 mi SE 10.4 mph - N/A   Clear
9:53 PM 63.0 °F - 48.9 °F 60% 30.04 in 10.0 mi SSE 10.4 mph - N/A   Partly Cloudy
10:53 PM 63.0 °F - 50.0 °F 63% 30.04 in 10.0 mi SSE 10.4 mph - N/A   Scattered Clouds
11:53 PM 63.0 °F - 51.1 °F 65% 30.03 in 10.0 mi SSE 8.1 mph - N/A   Clear